Weather History for Mount Shasta, CA

Change the Weather History Date:

Saturday, October 6, 2012

  Actual Average Record
Temperature  
Mean Temperature 55 °F 55 °F  
Max Temperature 74 °F 71 °F 90 °F (1980)
Min Temperature 35 °F 39 °F 23 °F (1927)
Degree Days  
Heating Degree Days 10 10  
Month to date heating degree days 25 57  
Since 1 July heating degree days 70 294  
Cooling Degree Days 0 0  
Month to date cooling degree days 4 0  
Year to date cooling degree days 392 287  
Growing Degree Days 4 (Base 50)    
Moisture  
Dew Point 35 °F    
Average Humidity 57    
Maximum Humidity 89    
Minimum Humidity 19    
Precipitation  
Precipitation 0.00 in 0.04 in 1.29 in (1960)
Month to date precipitation 0.00 0.19  
Year to date precipitation 24.56 28.19  
Sea Level Pressure  
Sea Level Pressure 30.10 in    
Wind  
Wind Speed 0 mph (North)    
Max Wind Speed 6 mph    
Max Gust Speed 10 mph    
T = Trace of Precipitation, MM = Missing Value Source: NWS Daily Summary

Daily Weather History Graph

Daily Weather History Graph

Search for Another Location

Airport:

Trip Planner

Search our weather history database for the weather conditions in past years. The results will help you decide how hot, cold, wet, or windy it might be!

Date:

Astronomy

Oct. 06, 2012 Rise Set
Actual Time 7:11 AM PDT 6:41 PM PDT
Civil Twilight 6:44 AM PDT 7:09 PM PDT
Nautical Twilight 6:12 AM PDT 7:41 PM PDT
Astronomical Twilight 5:40 AM PDT 8:13 PM PDT
Moon 10:59 PM PDT (10/6) 1:13 PM PDT (10/6)
Length of Visible Light 12h 25m
Length of Day
11h 29m
Waning Gibbous, 64% of the Moon is Illuminated
Oct 6
Waning Gibbous
Oct 8
Last Quarter
Oct 15
New
Oct 21
First Quarter
Oct 29
Full

Hourly Weather History & Observations

Time (PDT) Temp. Dew Point Humidity Pressure Visibility Wind Dir Wind Speed Gust Speed Precip Events Conditions
12:56 AM 42.1 °F 36.0 °F 79% 30.14 in - Calm Calm - N/A   Clear
1:56 AM 41.0 °F 35.1 °F 79% 30.15 in - Calm Calm - N/A   Clear
2:56 AM 41.0 °F 34.0 °F 76% 30.14 in - Calm Calm - N/A   Clear
3:56 AM 37.0 °F 33.1 °F 86% 30.14 in - Calm Calm - N/A   Clear
4:56 AM 37.0 °F 32.0 °F 82% 30.14 in - Calm Calm - N/A   Clear
5:56 AM 37.0 °F 32.0 °F 82% 30.14 in - Calm Calm - N/A   Clear
6:56 AM 37.0 °F 32.0 °F 82% 30.15 in - Calm Calm - N/A   Clear
7:56 AM 36.0 °F 32.0 °F 86% 30.17 in - Calm Calm - N/A   Clear
8:56 AM 46.0 °F 37.0 °F 71% 30.17 in - Calm Calm - N/A   Clear
9:56 AM 55.9 °F 41.0 °F 57% 30.14 in - Calm Calm - N/A   Clear
10:56 AM 62.1 °F 39.0 °F 43% 30.12 in - Calm Calm - N/A   Clear
11:56 AM 70.0 °F 35.1 °F 28% 30.09 in - Calm Calm - N/A   Clear
12:56 PM 72.0 °F 33.1 °F 24% 30.07 in - Calm Calm - N/A   Clear
1:56 PM 73.9 °F 28.9 °F 19% 30.05 in - Calm Calm - N/A   Clear
2:56 PM 72.0 °F 28.0 °F 20% 30.04 in - Calm Calm - N/A   Clear
3:56 PM 69.1 °F 34.0 °F 27% 30.05 in - Calm Calm - N/A   Clear
4:56 PM 66.0 °F 37.9 °F 36% 30.05 in - Calm Calm - N/A   Clear
5:56 PM 66.9 °F 39.9 °F 37% 30.04 in - Calm Calm - N/A   Clear
6:56 PM 57.9 °F 39.0 °F 49% 30.06 in - Calm Calm - N/A   Clear
7:56 PM 59.0 °F 36.0 °F 42% 30.07 in - Calm Calm - N/A   Clear
8:56 PM 52.0 °F 37.9 °F 59% 30.08 in - Calm Calm - N/A   Clear
9:56 PM 48.0 °F 37.0 °F 66% 30.07 in - Calm Calm - N/A   Clear
10:56 PM 46.0 °F 37.0 °F 71% 30.08 in - Calm Calm - N/A   Clear
11:56 PM 46.0 °F 37.0 °F 71% 30.06 in - Calm Calm - N/A   Clear